Retour au catalogue

CZ-4C DEB

ActifSSO
NORAD 39213·DEBRIS·🇨🇳 China

Lancé Jul 19, 2013 depuis Taiyuan Satellite Launch Center

Loading…

Prochains Passages (prochaines 24 heures)

TLE

FraisSource: Space-Track

Époque: Sep 13, 2026, 23:54 UTC

1 39213U 13037F   26256.99607173  .00000486  00000-0  78288-4 0  9990
2 39213  98.0374 259.9889 0011515 146.2752 213.9192 14.75887360706303

Suivez CZ-4C DEB en temps réel avec AllMySat

Download on the App Store